{"data":{"norad_id":58058,"epoch":"2026-05-24T22:45:13.228128Z","epoch_age_seconds":69783,"freshness":"FRESH","line1":"1 58058U 23158H   26144.94806977  .00001599  00000+0  67628-4 0  9998","line2":"2 58058  43.0041 316.2980 0002104 265.4670  94.5941 15.27579704145230","mean_motion":15.27579704,"eccentricity":0.0002104,"inclination_deg":43.0041,"raan_deg":316.298,"arg_perigee_deg":265.467,"mean_anomaly_deg":94.5941,"bstar":6.7628e-5,"rev_number":14523,"period_min":94.266766979774,"perigee_km":481.60638862919,"apogee_km":484.49357611137,"semimajor_km":6861.1869823703,"source":"CELESTRAK","updated_at":"2026-05-25T13:38:18.500095Z"}}